• In Austria
  • List of Countries
  • For 7 days
  • Water Temperature
  • Satellite Maps
  • Weather Map
  • News
  • Weather Widgets
  • user-avatar
    Login

    Hourly Weather Ashtarak

    Today, 20 May, Sunday

    Time Temperature Precipitation Wind Pressure Humidity
    00:00 +16°C° 0.5 mm 1 mps 660 mmHg 73%
    01:00 +16°C° 0.3 mm 1 mps 660 mmHg 74%
    02:00 +15°C° 0.3 mm 1 mps 660 mmHg 75%
    03:00 +14°C° 0 mm 0 mps 659 mmHg 71%
    04:00 +14°C° 0.3 mm 0 mps 659 mmHg 70%
    05:00 +16°C° 0.3 mm 1 mps 659 mmHg 69%
    06:00 +16°C° 0.3 mm 1 mps 660 mmHg 68%
    07:00 +19°C° 0.3 mm 1 mps 660 mmHg 64%
    08:00 +19°C° 0.3 mm 2 mps 660 mmHg 59%
    09:00 +20°C° 0 mm 2 mps 660 mmHg 56%
    10:00 +21°C° 0.3 mm 2 mps 660 mmHg 54%
    11:00 +23°C° 0.3 mm 2 mps 660 mmHg 52%
    12:00 +24°C° 0.3 mm 3 mps 660 mmHg 50%
    13:00 +24°C° 0.8 mm 3 mps 660 mmHg 51%
    14:00 +24°C° 0.8 mm 3 mps 659 mmHg 52%
    15:00 +24°C° 0.8 mm 3 mps 659 mmHg 52%
    16:00 +23°C° 1 mm 2 mps 659 mmHg 57%
    17:00 +21°C° 1 mm 2 mps 658 mmHg 61%
    18:00 +20°C° 1 mm 2 mps 658 mmHg 65%
    19:00 +19°C° 1 mm 2 mps 658 mmHg 68%
    20:00 +19°C° 1 mm 1 mps 658 mmHg 71%
    21:00 +18°C° 1 mm 1 mps 658 mmHg 74%
    22:00 +18°C° 0.6 mm 1 mps 658 mmHg 74%
    23:00 +18°C° 0.6 mm 1 mps 658 mmHg 75%

    Tomorrow, 21 May, Monday

    Time Temperature Precipitation Wind Pressure Humidity
    00:00 +18°C° 0.6 mm 1 mps 658 mmHg 75%
    01:00 +16°C° 0.4 mm 1 mps 658 mmHg 76%
    02:00 +16°C° 0.4 mm 1 mps 658 mmHg 76%
    03:00 +15°C° 0.4 mm 1 mps 658 mmHg 76%
    04:00 +16°C° 0.3 mm 1 mps 658 mmHg 75%
    05:00 +16°C° 0.3 mm 1 mps 658 mmHg 74%
    06:00 +18°C° 0.3 mm 1 mps 658 mmHg 72%
    07:00 +18°C° 0.3 mm 2 mps 658 mmHg 67%
    08:00 +20°C° 0.3 mm 2 mps 659 mmHg 61%
    09:00 +21°C° 0.3 mm 2 mps 659 mmHg 55%
    10:00 +22°C° 0.9 mm 3 mps 659 mmHg 52%
    11:00 +24°C° 0.9 mm 3 mps 659 mmHg 50%
    12:00 +25°C° 0.9 mm 3 mps 659 mmHg 47%
    13:00 +25°C° 1.5 mm 3 mps 659 mmHg 48%
    14:00 +25°C° 1.5 mm 2 mps 659 mmHg 49%
    15:00 +25°C° 1.5 mm 2 mps 659 mmHg 49%
    16:00 +23°C° 1.8 mm 2 mps 659 mmHg 56%
    17:00 +21°C° 1.8 mm 2 mps 659 mmHg 63%
    18:00 +19°C° 1.8 mm 2 mps 658 mmHg 70%
    19:00 +19°C° 1.1 mm 2 mps 659 mmHg 73%
    20:00 +18°C° 1.1 mm 2 mps 659 mmHg 76%
    21:00 +17°C° 1.1 mm 2 mps 659 mmHg 80%
    22:00 +16°C° 0.5 mm 2 mps 659 mmHg 81%
    23:00 +16°C° 0.5 mm 1 mps 659 mmHg 82%

    Day after tomorrow, 22 May, Tuesday

    Time Temperature Precipitation Wind Pressure Humidity
    00:00 +16°C° 0.5 mm 1 mps 659 mmHg 83%
    01:00 +15°C° 0.1 mm 1 mps 659 mmHg 84%
    02:00 +15°C° 0.1 mm 1 mps 658 mmHg 85%
    03:00 +14°C° 0.1 mm 1 mps 658 mmHg 86%
    04:00 +15°C° 0.1 mm 1 mps 658 mmHg 84%
    05:00 +15°C° 0.1 mm 1 mps 659 mmHg 82%
    06:00 +16°C° 0.1 mm 1 mps 659 mmHg 80%
    07:00 +18°C° 0.1 mm 1 mps 659 mmHg 73%
    08:00 +20°C° 0.1 mm 1 mps 660 mmHg 67%
    09:00 +20°C° 0.1 mm 2 mps 660 mmHg 61%
    10:00 +21°C° 0.3 mm 2 mps 660 mmHg 58%
    11:00 +23°C° 0.3 mm 2 mps 660 mmHg 55%
    12:00 +24°C° 0.3 mm 2 mps 660 mmHg 52%
    13:00 +24°C° 0.8 mm 2 mps 660 mmHg 52%
    14:00 +24°C° 0.8 mm 2 mps 660 mmHg 52%
    15:00 +24°C° 0.8 mm 2 mps 660 mmHg 52%
    16:00 +22°C° 0.8 mm 3 mps 660 mmHg 56%
    17:00 +22°C° 0.8 mm 3 mps 660 mmHg 60%
    18:00 +21°C° 0.8 mm 3 mps 659 mmHg 64%
    19:00 +20°C° 0.4 mm 3 mps 660 mmHg 68%
    20:00 +18°C° 0.4 mm 3 mps 660 mmHg 72%
    21:00 +17°C° 0.4 mm 2 mps 660 mmHg 76%
    22:00 +17°C° 0.2 mm 2 mps 660 mmHg 77%
    23:00 +16°C° 0.2 mm 2 mps 660 mmHg 78%

    23 May, Wednesday

    Time Temperature Precipitation Wind Pressure Humidity
    00:00 +16°C° 0.2 mm 2 mps 660 mmHg 79%
    01:00 +15°C° 0.1 mm 2 mps 659 mmHg 78%
    02:00 +15°C° 0.1 mm 2 mps 659 mmHg 78%
    03:00 +14°C° 0.1 mm 2 mps 659 mmHg 78%
    04:00 +15°C° 0 mm 2 mps 659 mmHg 76%
    05:00 +15°C° 0 mm 2 mps 659 mmHg 74%
    06:00 +15°C° 0 mm 2 mps 659 mmHg 73%
    07:00 +17°C° 0 mm 2 mps 660 mmHg 66%
    08:00 +18°C° 0 mm 2 mps 660 mmHg 60%
    09:00 +20°C° 0 mm 2 mps 660 mmHg 54%
    10:00 +21°C° 0.1 mm 2 mps 660 mmHg 51%
    11:00 +23°C° 0.1 mm 2 mps 660 mmHg 49%
    12:00 +24°C° 0.1 mm 2 mps 660 mmHg 46%
    13:00 +24°C° 0.5 mm 3 mps 660 mmHg 47%
    14:00 +24°C° 0.5 mm 3 mps 659 mmHg 47%
    15:00 +25°C° 0.5 mm 3 mps 659 mmHg 48%
    16:00 +24°C° 0.6 mm 3 mps 659 mmHg 51%
    17:00 +22°C° 0.6 mm 3 mps 659 mmHg 55%
    18:00 +21°C° 0.6 mm 3 mps 658 mmHg 59%
    19:00 +20°C° 0.4 mm 3 mps 658 mmHg 63%
    20:00 +18°C° 0.4 mm 3 mps 658 mmHg 67%
    21:00 +16°C° 0.4 mm 2 mps 658 mmHg 71%
    22:00 +16°C° 0.1 mm 2 mps 658 mmHg 70%
    23:00 +15°C° 0.1 mm 2 mps 658 mmHg 69%

    24 May, Thursday

    Time Temperature Precipitation Wind Pressure Humidity
    00:00 +15°C° 0.1 mm 2 mps 657 mmHg 68%
    01:00 +14°C° 0 mm 2 mps 657 mmHg 67%
    02:00 +14°C° 0 mm 2 mps 657 mmHg 67%
    03:00 +14°C° 0 mm 2 mps 656 mmHg 66%
    04:00 +14°C° 0 mm 2 mps 656 mmHg 65%
    05:00 +15°C° 0 mm 1 mps 657 mmHg 64%
    06:00 +15°C° 0 mm 1 mps 657 mmHg 63%
    07:00 +18°C° 0 mm 1 mps 657 mmHg 58%
    08:00 +19°C° 0 mm 1 mps 657 mmHg 52%
    09:00 +21°C° 0 mm 1 mps 657 mmHg 47%
    10:00 +22°C° 0 mm 1 mps 657 mmHg 44%
    11:00 +23°C° 0 mm 2 mps 657 mmHg 42%
    12:00 +24°C° 0 mm 2 mps 657 mmHg 40%
    13:00 +24°C° 0.1 mm 2 mps 656 mmHg 40%
    14:00 +25°C° 0.1 mm 3 mps 656 mmHg 40%
    15:00 +25°C° 0.1 mm 3 mps 656 mmHg 40%
    16:00 +24°C° 0.2 mm 3 mps 655 mmHg 44%
    17:00 +23°C° 0.2 mm 2 mps 655 mmHg 47%
    18:00 +23°C° 0.2 mm 2 mps 655 mmHg 51%
    19:00 +20°C° 0.2 mm 2 mps 655 mmHg 54%
    20:00 +18°C° 0.2 mm 2 mps 655 mmHg 58%
    21:00 +16°C° 0.2 mm 2 mps 655 mmHg 62%
    22:00 +16°C° 0 mm 2 mps 655 mmHg 64%
    23:00 +15°C° 0 mm 1 mps 655 mmHg 65%

    25 May, Friday

    Time Temperature Precipitation Wind Pressure Humidity
    00:00 +15°C° 0 mm 1 mps 655 mmHg 67%
    01:00 +15°C° 0 mm 1 mps 655 mmHg 67%
    02:00 +14°C° 0 mm 1 mps 654 mmHg 66%
    03:00 +14°C° 0 mm 1 mps 654 mmHg 66%
    04:00 +14°C° 0.1 mm 1 mps 654 mmHg 65%
    05:00 +15°C° 0.1 mm 1 mps 655 mmHg 65%
    06:00 +16°C° 0.1 mm 1 mps 655 mmHg 64%
    07:00 +18°C° 0.2 mm 1 mps 655 mmHg 58%
    08:00 +19°C° 0.2 mm 1 mps 656 mmHg 53%
    09:00 +21°C° 0.2 mm 1 mps 656 mmHg 47%
    10:00 +21°C° 0.2 mm 1 mps 656 mmHg 47%
    11:00 +21°C° 0.2 mm 2 mps 656 mmHg 46%
    12:00 +23°C° 0.2 mm 2 mps 656 mmHg 45%
    13:00 +23°C° 0.1 mm 2 mps 656 mmHg 45%
    14:00 +23°C° 0.1 mm 2 mps 655 mmHg 45%
    15:00 +24°C° 0.1 mm 2 mps 655 mmHg 45%
    16:00 +23°C° 0.2 mm 2 mps 655 mmHg 48%
    17:00 +23°C° 0.2 mm 1 mps 655 mmHg 51%
    18:00 +22°C° 0.2 mm 1 mps 655 mmHg 55%
    19:00 +21°C° 0.3 mm 1 mps 655 mmHg 59%
    20:00 +19°C° 0.3 mm 1 mps 655 mmHg 64%
    21:00 +18°C° 0.3 mm 1 mps 656 mmHg 68%
    22:00 +16°C° 0.2 mm 1 mps 656 mmHg 69%
    23:00 +16°C° 0.2 mm 1 mps 655 mmHg 70%
    Show more